[[{"header":{"parameterUnit":"m.s-1","parameterCategory":1,"la1":30.2991,"la2":30.254,"lo1":-89.0895,"lo2":-89.0444,"dy":0.0017,"dx":0.0017,"nx":28,"ny":28,"refTime":"2024-05-02T09:00:00:Z","depth":0,"parameterNumber":2,"parameterNumberName":"U-component_of_WINDS"},"data":[0,0,0,0,0,0,0,0,0,0,0,0,0,0,0,0,0,0,0,0,0,0,0,0,0,0,0,0,0,0,0,0,0,0,0,0,0,0,0,0,0,0,0,0,0,0,0,0,0,0,0,0,0,0,0,0,0,0,-3.4177,-3.4177,0,-3.4209,-3.4209,-3.421,-3.4195,-3.4194,-3.4194,-3.4193,-3.4223,-3.4224,-3.4226,0,0,0,0,0,0,0,0,0,0,0,0,0,-3.4102,-3.4103,-3.4177,-3.4177,-3.4178,-3.4209,-3.4209,-3.421,-3.4195,-3.4194,-3.4194,-3.4193,-3.4222,-3.4224,-3.4226,0,0,0,0,0,0,0,0,0,0,0,0,0,-3.4134,-3.4104,-3.4177,-3.4174,-3.4175,-3.4209,-3.4209,-3.421,-3.4196,-3.4194,-3.4193,-3.4192,-3.4222,-3.4224,-3.4226,-3.4264,0,0,-3.4233,-3.4234,0,0,0,0,0,0,0,0,-3.4132,-3.4137,-3.4174,-3.4175,-3.4175,-3.4197,-3.4194,-3.4228,-3.4196,-3.4188,-3.4193,-3.4192,-3.4215,-3.4218,-3.4226,-3.4265,-3.4267,-3.4234,-3.4235,-3.4236,-3.4237,0,0,0,0,0,0,0,-3.413,-3.4136,-3.4189,-3.4175,-3.4175,-3.4171,-3.4175,-3.42,-3.4207,-3.4188,-3.4187,-3.4191,-3.4215,-3.4224,-3.4227,-3.4267,-3.4234,-3.4236,-3.4237,-3.4238,-3.4339,-3.434,0,0,0,0,0,0,-3.4128,-3.4134,-3.4188,-3.419,-3.415,-3.4174,-3.4177,-3.4191,-3.4207,-3.4209,-3.4192,-3.4191,-3.4221,-3.4224,-3.4228,-3.4272,-3.4236,-3.4238,-3.4239,-3.4338,-3.4339,-3.4341,0,0,0,0,0,0,-3.4127,-3.4133,-3.4187,-3.4162,-3.4169,-3.4176,-3.4192,-3.4192,-3.4201,-3.421,-3.4211,-3.42,-3.422,-3.4225,-3.4255,-3.4273,-3.4239,-3.4241,-3.4336,-3.4338,-3.434,-3.4362,0,0,0,0,0,0,-3.4125,-3.4133,-3.4147,-3.4162,-3.417,-3.4214,-3.4193,-3.4194,-3.4206,-3.4204,-3.4218,-3.4219,-3.4219,-3.4252,-3.4258,-3.4276,-3.4243,-3.4334,-3.4337,-3.4339,-3.436,-3.4365,-3.4369,0,0,0,0,0,-3.4122,-3.4152,-3.4148,-3.4155,-3.4188,-3.4216,-3.422,-3.422,-3.4207,-3.4222,-3.4228,-3.4219,-3.4271,-3.4255,-3.4262,-3.4281,-3.4333,-3.4336,-3.4339,-3.4358,-3.4364,-3.4369,0,0,0,0,0,0,-3.4137,-3.4154,-3.415,-3.4185,-3.4199,-3.4213,-3.4231,-3.4226,-3.4243,-3.424,-3.424,-3.4243,-3.4274,-3.4281,-3.4263,-3.4318,-3.43,-3.4304,-3.4312,-3.4318,-3.4322,-3.4319,-3.4245,0,0,0,0,0,-3.4145,-3.4167,-3.418,-3.421,-3.4217,-3.4223,-3.4235,-3.4234,-3.4248,-3.4254,-3.4262,-3.4275,-3.4294,-3.4307,-3.4325,-3.4362,-3.4364,-3.4378,-3.4383,-3.4386,-3.4389,-3.4409,-3.4415,-3.435,-3.435,-3.435,0,0,-3.4161,-3.4172,-3.4186,-3.4213,-3.4224,-3.4245,-3.4228,-3.4251,-3.4267,-3.4257,-3.4286,-3.4293,-3.4308,-3.4341,-3.4357,-3.4348,-3.4408,-3.439,-3.4393,-3.4394,-3.4412,-3.4418,-3.4424,-3.4352,-3.4352,-3.4352,0,0,-3.42,-3.4212,-3.4238,-3.4249,-3.4266,-3.4271,-3.4277,-3.4292,-3.4296,-3.4326,-3.4319,-3.4338,-3.4371,-3.4382,-3.4392,-3.4438,-3.443,-3.4444,-3.4466,-3.4485,-3.449,-3.4495,-3.451,-3.4515,-3.4447,-3.4447,-3.4447,0,-3.4217,-3.4249,-3.4252,-3.4276,-3.4288,-3.4282,-3.4308,-3.4319,-3.4341,-3.4349,-3.4339,-3.4382,-3.4391,-3.4427,-3.4438,-3.4447,-3.4454,-3.4441,-3.449,-3.4494,-3.4498,-3.4512,-3.4518,-3.4449,-3.4449,-3.4449,-3.4448,0,-3.4269,-3.4292,-3.4311,-3.4333,-3.4348,-3.4373,-3.4379,-3.4393,-3.4392,-3.4397,-3.4428,-3.4439,-3.446,-3.4469,-3.4467,-3.4505,-3.4499,-3.449,-3.4471,-3.4506,-3.4519,-3.4524,-3.4451,-3.445,-3.445,-3.445,0,0,-3.4316,-3.4341,-3.4347,-3.4358,-3.4377,-3.4394,-3.442,-3.4441,-3.4453,-3.4469,-3.4489,-3.4519,-3.4511,-3.4522,-3.4522,-3.4539,-3.4573,-3.4528,-3.4528,-3.4534,-3.4614,-3.4619,-3.4625,-3.4569,-3.4571,-3.4571,-3.4612,0,-3.4355,-3.44,-3.4403,-3.4443,-3.4464,-3.4459,-3.4481,-3.4495,-3.4501,-3.452,-3.4526,-3.4547,-3.4535,-3.4542,-3.4559,-3.4565,-3.4589,-3.4563,-3.4587,-3.4588,-3.4581,-3.4633,-3.4638,-3.4676,-3.4617,-3.4618,-3.4619,0,-3.4406,-3.4425,-3.4467,-3.4484,-3.4493,-3.4513,-3.4533,-3.4551,-3.4567,-3.457,-3.4584,-3.4582,-3.4607,-3.459,-3.4624,-3.4607,-3.4617,-3.4622,-3.4624,-3.4624,-3.4604,-3.4632,-3.4688,-3.4693,-3.4627,-3.4627,-3.4626,0,-3.4435,-3.447,-3.45,-3.4509,-3.453,-3.4544,-3.4553,-3.4568,-3.4581,-3.4599,-3.4607,-3.4627,-3.4638,-3.4653,-3.4657,-3.4644,-3.4691,-3.4674,-3.4693,-3.4693,-3.4701,-3.47,-3.4757,-3.4711,-3.4711,-3.4711,-3.4711,0,-3.4477,-3.4502,-3.4513,-3.4531,-3.456,-3.4564,-3.4592,-3.4601,-3.4614,-3.4633,-3.4631,-3.4649,-3.4654,-3.4673,-3.4676,-3.4703,-3.4708,-3.4711,-3.4711,-3.471,-3.4709,-3.4715,-3.4711,-3.4713,-3.4712,-3.4712,-3.4712,0,-3.4512,-3.452,-3.4552,-3.4571,-3.4576,-3.4596,-3.4611,-3.4628,-3.4635,-3.4659,-3.4665,-3.4675,-3.4697,-3.4703,-3.4729,-3.4732,-3.4763,-3.4762,-3.4758,-3.4757,-3.4775,-3.4773,-3.4836,-3.4844,-3.4795,-3.4796,-3.4796,0,-3.4537,-3.4557,-3.4578,-3.4591,-3.4601,-3.4623,-3.4636,-3.4642,-3.4656,-3.4676,-3.4691,-3.4713,-3.473,-3.4766,-3.4775,-3.4795,-3.4793,-3.4814,-3.4796,-3.4794,-3.4791,-3.4789,-3.4791,-3.4816,-3.4817,-3.4817,-3.4818,0,-3.4581,-3.4585,-3.4605,-3.4627,-3.4643,-3.466,-3.4677,-3.4687,-3.4695,-3.4711,-3.4734,-3.4748,-3.4776,-3.4797,-3.4818,-3.4827,-3.4823,-3.4824,-3.4829,-3.4827,-3.4823,-3.4824,-3.4765,-3.4822,-3.4821,-3.4821,-3.4821,-3.4821,-3.4611,-3.4628,-3.4646,-3.4668,-3.4682,-3.4697,-3.4715,-3.4724,-3.4744,-3.4767,-3.477,-3.4794,-3.481,-3.4838,-3.4848,-3.4867,-3.4861,-3.4868,-3.487,-3.4871,-3.4872,-3.4822,-3.4871,-3.4871,-3.4871,-3.4871,-3.4871,0,-3.4653,-3.4665,-3.4686,-3.4709,-3.4727,-3.4725,-3.4743,-3.4757,-3.478,-3.4795,-3.4814,-3.484,-3.4861,-3.4873,-3.4894,-3.4907,-3.4906,-3.4912,-3.491,-3.4912,-3.4877,-3.487,-3.4913,-3.4913,-3.4913,-3.4913,-3.4913,-3.4913,-3.4677,-3.4706,-3.4712,-3.4748,-3.4759,-3.4784,-3.4795,-3.4809,-3.4822,-3.4852,-3.487,-3.4878,-3.4892,-3.4915,-3.4934,-3.4937,-3.4944,-3.4951,-3.4952,-3.4919,-3.4915,-3.491,-3.4903,-3.4953,-3.4953,-3.4985,-3.4986,-3.4986]},{"header":{"parameterUnit":"m.s-1","parameterCategory":1,"la1":30.2991,"la2":30.254,"lo1":-89.0895,"lo2":-89.0444,"dy":0.0017,"dx":0.0017,"nx":28,"ny":28,"refTime":"2024-05-02T09:00:00:Z","depth":0,"parameterNumber":3,"parameterNumberName":"V-component_of_WINDS"},"data":[0,0,0,0,0,0,0,0,0,0,0,0,0,0,0,0,0,0,0,0,0,0,0,0,0,0,0,0,0,0,0,0,0,0,0,0,0,0,0,0,0,0,0,0,0,0,0,0,0,0,0,0,0,0,0,0,0,0,3.2929,3.2929,0,3.2933,3.2933,3.2933,3.2918,3.2918,3.2917,3.2917,3.2918,3.2918,3.2919,0,0,0,0,0,0,0,0,0,0,0,0,0,3.2906,3.2907,3.2929,3.2929,3.2929,3.2933,3.2933,3.2933,3.2918,3.2918,3.2917,3.2917,3.2918,3.2918,3.2919,0,0,0,0,0,0,0,0,0,0,0,0,0,3.2914,3.2907,3.2929,3.2922,3.2922,3.2933,3.2933,3.2933,3.2918,3.2918,3.2917,3.2916,3.2917,3.2918,3.2919,3.2936,0,0,3.2921,3.2921,0,0,0,0,0,0,0,0,3.2913,3.2914,3.2923,3.2923,3.2922,3.2924,3.2925,3.2934,3.2919,3.2919,3.2917,3.2916,3.292,3.2921,3.2923,3.2936,3.2936,3.2921,3.2921,3.2921,3.2922,0,0,0,0,0,0,0,3.2913,3.2914,3.293,3.2923,3.2923,3.2918,3.2919,3.2927,3.2923,3.2919,3.2918,3.2919,3.292,3.2922,3.2923,3.2936,3.2921,3.2921,3.2922,3.2922,3.2965,3.2965,0,0,0,0,0,0,3.2913,3.2914,3.293,3.293,3.2916,3.2919,3.292,3.2924,3.2923,3.2923,3.292,3.2918,3.2921,3.2922,3.2923,3.2944,3.2921,3.2922,3.2922,3.2964,3.2965,3.2965,0,0,0,0,0,0,3.2913,3.2915,3.293,3.2922,3.2924,3.292,3.2926,3.2925,3.2927,3.2924,3.2923,3.2923,3.2921,3.2922,3.2933,3.2943,3.2922,3.2923,3.2963,3.2964,3.2965,3.2985,0,0,0,0,0,0,3.2912,3.2915,3.2922,3.2922,3.2924,3.2941,3.2926,3.2925,3.2929,3.2927,3.2926,3.2925,3.292,3.2932,3.2934,3.2944,3.2923,3.2962,3.2963,3.2965,3.2984,3.2987,3.299,0,0,0,0,0,3.2912,3.2926,3.2922,3.2924,3.2933,3.2942,3.2943,3.2938,3.2929,3.2936,3.2934,3.2926,3.2942,3.2934,3.2935,3.2946,3.2961,3.2963,3.2965,3.2982,3.2986,3.299,0,0,0,0,0,0,3.2925,3.2926,3.2922,3.2937,3.294,3.2939,3.2947,3.2942,3.2946,3.2944,3.2936,3.2936,3.2949,3.2948,3.2939,3.2963,3.295,3.2952,3.2963,3.2967,3.297,3.297,3.2924,0,0,0,0,0,3.293,3.2938,3.2938,3.2951,3.2953,3.295,3.2954,3.295,3.2952,3.2953,3.2952,3.2953,3.2959,3.2963,3.2968,3.2983,3.2984,3.2991,3.2995,3.2997,3.2999,3.3009,3.3013,3.2971,3.2971,3.2971,0,0,3.294,3.2941,3.2947,3.2954,3.2956,3.2965,3.2951,3.296,3.2966,3.2954,3.2965,3.2965,3.2966,3.298,3.2986,3.298,3.3011,3.2999,3.3001,3.3002,3.3011,3.3015,3.3018,3.2972,3.2972,3.2972,0,0,3.2962,3.2964,3.2976,3.2979,3.2982,3.2981,3.2984,3.2985,3.2984,3.2996,3.2987,3.2994,3.3004,3.3006,3.3008,3.3033,3.3026,3.3035,3.3051,3.3061,3.3064,3.3067,3.3077,3.3081,3.3037,3.3037,3.3037,0,3.2973,3.2987,3.2983,3.2993,3.2997,3.2988,3.3001,3.3003,3.3007,3.301,3.3003,3.3016,3.3016,3.3032,3.3038,3.304,3.3043,3.3035,3.3064,3.3067,3.3069,3.3079,3.3083,3.3038,3.3038,3.3038,3.3038,0,3.3001,3.3011,3.302,3.3027,3.3032,3.3043,3.304,3.3046,3.3042,3.3041,3.3053,3.3053,3.3059,3.3062,3.3057,3.3077,3.3074,3.3065,3.3052,3.3075,3.3084,3.3087,3.304,3.3039,3.3039,3.3039,0,0,3.3031,3.3037,3.3041,3.3045,3.3049,3.3056,3.3067,3.3074,3.3079,3.3083,3.3092,3.3102,3.3095,3.3097,3.3093,3.3101,3.3123,3.3092,3.3092,3.3099,3.3146,3.3153,3.3158,3.3118,3.3119,3.3119,3.3147,0,3.3054,3.3075,3.3073,3.3092,3.3102,3.3094,3.3104,3.3107,3.3107,3.3114,3.3113,3.312,3.311,3.3112,3.312,3.3119,3.3133,3.3117,3.3127,3.3127,3.3128,3.3162,3.3169,3.3194,3.315,3.3151,3.3151,0,3.3084,3.3091,3.3112,3.3117,3.3121,3.313,3.3137,3.3144,3.3148,3.3147,3.3151,3.3146,3.3157,3.3144,3.316,3.3149,3.3153,3.3153,3.3154,3.3155,3.3141,3.3165,3.3202,3.3207,3.3156,3.3156,3.3155,0,3.3105,3.312,3.3135,3.3138,3.3144,3.3151,3.3153,3.3156,3.3161,3.3167,3.3171,3.3177,3.3181,3.3186,3.3182,3.3173,3.3199,3.3185,3.3199,3.3199,3.3204,3.3204,3.3244,3.3206,3.3206,3.3206,3.3206,0,3.3132,3.3145,3.3145,3.3154,3.317,3.3167,3.3181,3.3182,3.3186,3.3195,3.3188,3.3197,3.3191,3.3199,3.3196,3.3211,3.3212,3.3211,3.3211,3.3213,3.3213,3.3215,3.3214,3.3207,3.3207,3.3206,3.3206,0,3.3158,3.3159,3.3175,3.318,3.3181,3.3192,3.3196,3.3204,3.3204,3.3216,3.3219,3.3218,3.3227,3.3224,3.3234,3.3232,3.325,3.3246,3.3249,3.3249,3.3263,3.3262,3.3306,3.3312,3.3269,3.327,3.327,0,3.3176,3.3186,3.3193,3.32,3.3203,3.3213,3.3219,3.3217,3.3223,3.3229,3.3237,3.3247,3.3254,3.3269,3.3269,3.3276,3.3273,3.3288,3.3274,3.3277,3.3275,3.3275,3.3276,3.3291,3.3292,3.3292,3.3293,0,3.3207,3.3207,3.3217,3.3227,3.3235,3.3242,3.3248,3.3254,3.3252,3.3259,3.327,3.3275,3.3287,3.3296,3.3303,3.3305,3.3299,3.3297,3.3301,3.3303,3.3305,3.3306,3.3258,3.3296,3.3296,3.3295,3.3295,3.3295,3.323,3.324,3.3247,3.3258,3.3263,3.327,3.3279,3.3281,3.329,3.33,3.3298,3.331,3.3315,3.3324,3.3327,3.3336,3.333,3.3335,3.3337,3.3338,3.3341,3.3303,3.3337,3.3337,3.3337,3.3337,3.3337,0,3.3262,3.3267,3.3277,3.3288,3.3297,3.3292,3.3299,3.3307,3.3318,3.3324,3.3332,3.3345,3.3354,3.3355,3.3364,3.3372,3.3369,3.3374,3.3374,3.3375,3.3345,3.3341,3.3376,3.3376,3.3376,3.3376,3.3376,3.3376,3.328,3.3297,3.3298,3.3318,3.3322,3.3336,3.3341,3.3347,3.3352,3.3367,3.3375,3.3377,3.3381,3.339,3.3399,3.3399,3.3403,3.3409,3.3408,3.338,3.3376,3.3373,3.3369,3.341,3.341,3.3437,3.3438,3.3438]}]]